Location: Vancouver
(49.2500°N, 123.1330°W)
Time: 16:13:13
(UTC-08:00)

Daily predictions for brighter satellites

Satellite Brightness Start Highest point End
(mag) Time Altitude Azimuth Time Altitude Azimuth Time Altitude Azimuth
Cosmos 397 4.4 16:54:46 10° SSW 16:58:55 81° SE 17:03:06 10° NE
SJ-12 3.9 16:54:48 10° SSE 16:58:55 71° ENE 17:03:04 10° N
ERBS 2.4 16:58:23 10° NW 17:01:45 57° NNE 17:05:07 10° ESE
Cosmos 468 Rocket 4.1 16:57:35 10° NNW 17:02:40 53° ENE 17:07:43 10° SE
Lacrosse 4 Rocket 4.4 17:01:16 10° WNW 17:04:27 22° WSW 17:07:35 10° SSW
TSX-5 3.5 17:01:19 10° NNW 17:04:36 85° WSW 17:08:24 10° SSE
Cosmos 1954 Rocket 4.3 17:00:18 10° SSW 17:05:33 73° WNW 17:10:49 10° NNE
Cosmos 2100 Rocket 4.1 16:59:23 10° S 17:05:36 85° E 17:11:57 10° N
SL-16 R/B 4.4 17:00:37 10° N 17:05:44 27° WNW 17:10:49 10° WSW
Cosmos 1437 4.4 17:05:25 10° SE 17:07:32 17° E 17:09:39 10° NE
CZ-4C R/B 3.7 17:02:12 10° NW 17:07:44 28° NNE 17:13:57 10° ENE
CSL-04 Debris 4.2 17:02:39 10° SSE 17:08:00 63° ENE 17:13:21 10° N
Cosmos 2242 Rocket 4.3 17:04:12 10° SSE 17:08:19 35° E 17:12:26 10° NNE
Cosmos 1733 Rocket 3.3 17:07:14 10° N 17:11:31 46° ENE 17:15:48 10° SSE
Cosmos 1833 Rocket 3.7 17:08:33 10° NNW 17:13:07 24° NE 17:17:39 10° E
Cosmos 1844 4.4 17:08:16 10° S 17:13:30 37° ESE 17:18:47 10° NE
CENTAUR R/B 3.0 17:08:23 10° S 17:14:07 45° ESE 17:20:39 10° NE
Cosmos 371 Rocket 3.3 17:09:56 10° NNW 17:14:47 87° WSW 17:19:36 10° SSE
Cosmos 972 Rocket 3.9 17:11:13 10° NNW 17:16:13 60° ENE 17:21:02 10° SSE
USA 161 1.4 17:14:54 10° N 17:16:40 45° WNW 17:18:31 10° SSW
Cosmos 1862 3.4 17:12:47 10° NNW 17:16:49 83° W 17:20:50 10° S
Cosmos 1802 Rocket 4.0 17:11:49 10° S 17:17:59 84° E 17:24:09 10° N
SL-23 DEB 4.0 17:16:17 10° W 17:19:42 67° N 17:24:29 12° ENE
Cosmos 2278 Rocket 3.4 17:16:05 10° SSE 17:20:15 21° E 17:24:14 11° NE
Cosmos 1484 Rocket 2.7 17:17:58 10° SSE 17:21:47 66° ENE 17:25:41 10° N
Cosmos 304 Rocket 4.1 17:17:21 10° NNW 17:21:57 43° ENE 17:26:32 10° SE
Aureole 3 3.7 17:18:04 10° N 17:22:14 77° E 17:27:33 10° SSE
Cosmos 1862 Rocket 4.1 17:20:37 10° SSE 17:24:42 38° E 17:28:50 10° NNE
Cosmos 2263 Rocket 3.3 17:20:17 10° WSW 17:25:37 42° NW 17:30:58 10° NNE
Cosmos 1763 Rocket 3.6 17:20:55 10° NNW 17:26:03 50° ENE 17:31:05 10° SE
Meteor 1-28 Rocket 3.8 17:23:50 10° NNE 17:27:16 34° E 17:30:40 10° SSE
Cosmos 1633 4.0 17:26:26 10° NNE 17:29:03 18° ENE 17:31:40 10° ESE
SL-27 R/B 3.6 17:27:10 10° N 17:29:46 20° ENE 17:31:38 14° E
CZ-2C R/B 4.1 17:27:58 10° NNE 17:32:10 39° E 17:36:24 10° SSE
Cosmos 1814 Rocket 4.1 17:27:04 10° NNW 17:32:24 62° ENE 17:37:42 10° SE
Cosmos 1816 Rocket 4.4 17:27:07 10° N 17:33:16 71° E 17:39:23 10° SSE
SL-08 R/B 4.5 17:27:20 10° S 17:33:33 79° E 17:39:55 10° NNE
Cosmos 1782 4.4 17:31:19 10° ESE 17:33:41 15° E 17:33:44 15° E
Cosmos 1606 4.4 17:31:48 10° ESE 17:33:24 14° E 17:33:24 14° E
Landsat 4 4.4 17:33:24 10° NNE 17:36:51 33° E 17:40:17 10° SSE
CORIOLIS 4.1 17:32:48 10° SSE 17:38:15 83° ENE 17:43:44 10° NNW
Meteor 1-25 Rocket 4.4 17:35:01 10° N 17:40:43 51° ENE 17:46:23 10° SSE
Cosmos 1725 Rocket 4.0 17:37:49 10° S 17:44:06 81° E 17:50:24 10° N
Cosmos 1346 3.2 17:42:30 10° SSW 17:44:45 51° WNW 17:47:00 10° N
Cosmos 44 4.2 17:41:54 10° NNW 17:45:49 28° NE 17:47:56 20° ENE
Meteor 1-20 Rocket 4.3 17:42:19 10° N 17:47:48 51° ENE 17:53:09 10° SSE
Cosmos 1850 Rocket 4.4 17:44:53 10° SW 17:50:02 65° WNW 17:55:13 10° NNE
Ariane Rocket 3.6 17:45:54 10° S 17:50:56 61° WSW 17:56:00 10° NNW
Cosmos 1782 Rocket 4.2 17:47:25 10° N 17:51:21 32° ENE 17:55:15 10° SE
Okean 1-7 4.2 17:48:30 10° SE 17:51:46 21° E 17:51:46 21° E
Tsikada Rocket 4.1 17:46:24 10° NNW 17:52:34 78° W 17:58:42 10° S
COSMO-SKYMED 1 3.1 17:51:27 11° NNE 17:55:14 37° E 17:59:16 10° SSE
Cosmos 2082 Rocket 2.6 17:49:51 10° NNW 17:55:16 41° NE 18:00:07 12° ESE
BREEZE-M DEB (TANK) 3.0 17:54:35 10° SW 17:56:48 47° SSE 17:57:57 29° E
ATLAS 3B R/B 3.9 17:51:13 10° W 17:57:43 35° NNW 18:03:35 12° NE
ALOS 2.5 17:54:17 10° SE 17:58:43 45° ENE 18:03:10 10° N
Cosmos 841 Rocket 3.4 17:53:40 10° NNW 17:58:58 70° ENE 18:04:13 10° SSE
Cosmos 540 Rocket 3.8 17:56:10 10° NNW 18:01:05 41° ENE 18:05:36 12° SE
YAOGAN 1 2.5 17:57:14 10° SSE 18:01:34 88° WSW 18:05:57 10° NNW
Cosmos 1486 Rocket 4.5 17:58:19 10° S 18:03:07 39° ESE 18:05:56 22° NE
CZ-4 R/B 4.4 18:00:09 10° SSE 18:04:18 89° WSW 18:08:30 10° NNW
Cosmos 1340 3.3 18:01:09 10° SSW 18:04:51 56° WNW 18:08:36 10° N
MTI 3.8 18:04:24 30° NE 18:05:44 55° E 18:08:53 10° S
USA 116 4.0 18:03:28 10° NNE 18:08:20 86° ESE 18:12:35 10° SSW
SPOT 3 Rocket 3.5 18:04:00 10° SSE 18:09:11 67° ENE 18:14:23 10° N
SMAP 4.3 18:05:24 10° S 18:09:50 44° W 18:14:18 10° NNW
USA 234 3.6 18:08:28 24° ENE 18:12:10 45° SE 18:18:23 10° SSW
NOAA 12 4.0 18:08:34 10° SSE 18:13:49 64° ENE 18:19:05 10° N
Meteor 1-14 Rocket 4.3 18:09:31 10° NNW 18:15:17 80° W 18:20:52 10° S
COSMOS 2455 2.8 18:13:47 10° SSW 18:19:47 78° ESE 18:23:51 22° NE
CZ-4 R/B 2.8 18:16:27 10° SSW 18:20:05 38° W 18:23:42 10° NNW
ERS-2 2.7 18:16:38 10° S 18:20:16 60° WSW 18:23:57 10° NNW
Cosmos 1703 Rocket 3.5 18:19:19 10° S 18:23:43 59° E 18:26:24 23° NNE
METEOR-M 4.4 18:18:53 10° S 18:24:13 72° WSW 18:29:35 10° NNW
Timation 1 Rocket 4.3 18:18:21 10° SSW 18:24:19 75° ESE 18:28:26 21° NE
Okean 2 Rocket 3.3 18:20:30 10° N 18:24:53 46° ENE 18:26:01 37° ESE
SKYMED 3 4.4 18:21:45 15° NNE 18:25:19 74° ESE 18:29:39 10° S
BREEZE-M R/B 3.6 18:22:50 10° W 18:25:25 37° SSW 18:27:11 23° SSE
Lacrosse 5 2.6 18:26:45 10° W 18:31:35 43° NNW 18:33:32 30° NNE
NOSS 3-2 (C) 4.5 18:25:42 10° WSW 18:31:36 42° NNW 18:36:24 18° NNE
Cosmos 1844 Rocket 3.5 18:28:51 10° SW 18:34:19 50° NW 18:39:11 13° NNE
Meteor 1-11 Rocket 4.0 18:29:57 10° N 18:35:41 48° ENE 18:38:01 32° SE
Cosmos 1464 Rocket 3.9 18:32:11 10° S 18:38:09 60° E 18:44:13 10° NNE
Meteor 2-20 4.4 18:37:15 10° N 18:43:18 59° ENE 18:49:17 10° SSE
SKYMED 2 3.7 18:40:02 17° N 18:43:24 74° WNW 18:47:43 10° SSW
Intercosmos 25 4.5 18:35:51 10° S 18:44:17 86° E 18:49:08 11° N
Cosmos 44 Rocket 3.2 18:41:34 10° NW 18:46:23 60° NE 18:46:33 60° ENE
Sich 1 Rocket 4.4 18:44:10 10° NNW 18:48:27 51° W 18:52:45 10° S
Cosmos 2297 4.1 18:50:15 10° S 18:54:54 45° SE 18:54:54 45° SE
FENGYUN 3A 4.1 18:52:00 10° S 18:57:21 62° WSW 19:02:45 10° NNW
CZ-4C R/B 2.8 18:50:47 10° NW 18:57:35 62° NE 18:59:33 48° E
Cosmos 1833 Rocket 2.7 18:52:02 10° NNW 18:57:41 78° WSW 19:01:06 25° SSE
Cosmos 2278 Rocket 2.3 18:58:04 10° SW 19:03:45 72° WNW 19:06:07 36° NNE
Cosmos 1633 4.0 19:00:45 10° NNW 19:04:10 37° W 19:07:34 10° SSW
EO 1 Del DPAF 4.4 19:03:17 32° NNW 19:04:29 41° WNW 19:08:05 10° SW
CENTAUR R/B 3.2 18:58:31 10° WSW 19:04:43 53° NW 19:08:20 28° NNE
SL-27 R/B 4.2 19:02:03 10° NW 19:05:01 30° WSW 19:05:24 29° WSW
Cosmos 292 Rocket 3.8 19:00:18 10° NNW 19:04:32 69° N 19:04:32 69° N
Cosmos 1606 3.8 19:05:34 10° SSW 19:08:32 42° WSW 19:08:32 42° WSW
Cosmos 1782 3.5 19:05:40 10° SSW 19:09:27 53° W 19:09:27 53° W
Cosmos 1503 Rocket 4.3 19:17:43 10° SSW 19:21:55 58° SSW 19:21:55 58° SSW
Meteor 2-6 Rocket 4.4 19:20:25 10° SSW 19:25:49 68° WNW 19:27:38 42° N
Meteor 2-20 Rocket 4.3 19:19:42 10° N 19:25:51 88° W 19:26:34 72° S
Cosmos 44 3.9 19:22:47 10° NW 19:26:24 50° WNW 19:26:24 50° WNW
Okean 1-7 4.2 19:24:56 10° SSW 19:28:43 42° W 19:28:43 42° W
ALOS 4.4 19:32:32 10° SSW 19:36:21 25° W 19:40:13 10° NW
Cosmos 2082 Rocket 3.4 19:34:05 10° NW 19:39:22 40° WSW 19:42:05 25° SSW
Timation 2 Rocket 4.1 19:36:53 10° NNW 19:43:31 82° WNW 19:43:31 82° WNW
ATLAS 3B R/B 4.2 19:44:58 10° NW 19:50:28 24° N 19:50:50 24° N
Nadezhda 4 Rocket 4.4 19:45:32 10° NNW 19:51:31 57° W 19:52:52 47° SW
USA 234 3.3 19:55:49 72° NW 19:55:49 72° NW 20:01:58 10° WSW
COSMOS 2455 4.3 20:01:07 10° W 20:06:21 30° NW 20:07:01 29° NNW
Lacrosse 5 4.1 20:10:50 10° WNW 20:12:44 20° NW 20:12:44 20° NW
CZ-4C R/B 3.9 20:39:30 10° NW 20:44:47 39° W 20:44:47 39° W
CENTAUR R/B 4.4 20:51:17 10° WNW 20:55:32 26° NNW 20:55:32 26° NNW
